DW9246 Weather Reports


Display with metric or nautical units.
time (UTC)temp
F
wind
direction
speed
MPH
gust
MPH
rain 1hr
in
rain 24hr
in
rain mn
in
humidity
%
barometer
mb
20260903084018 82 178 3.0 8.0 0.00 0.00 0.00 63 1024.0
20260903082016 82 170 3.0 6.0 0.00 0.00 0.00 62 1024.0
20260903081019 82 139 1.0 4.0 0.00 0.00 0.00 61 1024.0
20260903080020 81 154 2.0 5.0 0.00 0.00 0.00 63 1023.9
20260903075016 82 175 2.0 4.0 0.00 0.00 0.00 64 1024.0
20260903074026 81 326 1.0 4.0 0.00 0.00 0.00 64 1023.9
20260903072019 80 326 1.0 3.0 0.00 0.00 0.00 66 1023.8
20260903070016 77 326 1.0 2.0 0.00 0.00 0.00 69 1023.6
20260903065015 75 326 0.0 2.0 0.00 0.00 0.00 72 1023.6
20260903063022 73 326 2.0 3.0 0.00 0.00 0.00 73 1023.5
20260903061017 72 326 3.0 4.0 0.00 0.00 0.00 75 1023.3
20260903060019 71 326 4.0 7.0 0.00 0.00 0.00 76 1023.1
20260903055018 71 326 3.0 5.0 0.00 0.00 0.00 76 1023.2
20260903053017 70 325 3.0 7.0 0.00 0.00 0.00 74 1023.0
20260903052016 70 324 3.0 5.0 0.00 0.00 0.00 74 1023.0
20260903051017 70 324 3.0 4.0 0.00 0.00 0.00 75 1022.9
20260903045016 70 324 3.0 5.0 0.00 0.00 0.00 74 1022.9
20260903043018 70 324 2.0 4.0 0.00 0.00 0.00 75 1022.8
20260903042020 70 324 3.0 4.0 0.00 0.00 0.00 76 1022.8
20260903041016 70 324 2.0 4.0 0.00 0.00 0.00 78 1022.9
20260903040017 71 324 3.0 4.0 0.00 0.00 0.00 79 1022.9
20260903035017 71 324 3.0 5.0 0.00 0.00 0.00 78 1023.0
20260903033015 70 342 4.0 5.0 0.00 0.00 0.00 78 1023.0
20260903032016 70 342 3.0 5.0 0.00 0.00 0.00 78 1023.0
20260903031016 70 342 3.0 4.0 0.00 0.00 0.00 78 1023.0
20260903030017 70 341 3.0 4.0 0.00 0.00 0.00 79 1023.0
20260903024017 70 342 2.0 3.0 0.00 0.00 0.00 79 1023.0
20260903021016 71 341 3.0 5.0 0.00 0.00 0.00 81 1022.9
20260903020017 71 337 3.0 5.0 0.00 0.00 0.00 81 1022.9
20260903015016 71 322 3.0 5.0 0.00 0.00 0.00 81 1023.0
20260903014016 71 320 2.0 4.0 0.00 0.00 0.00 81 1022.9
20260903013017 71 320 3.0 5.0 0.00 0.00 0.00 81 1023.0
20260903012017 71 321 4.0 7.0 0.00 0.00 0.00 81 1023.2
20260903011015 71 320 3.0 5.0 0.00 0.00 0.00 80 1023.3
20260903010016 71 326 4.0 7.0 0.00 0.00 0.00 80 1023.4
20260903005015 71 335 3.0 5.0 0.00 0.00 0.00 81 1023.3
20260903004017 71 342 3.0 5.0 0.00 0.00 0.00 81 1023.4
20260903003015 71 342 3.0 5.0 0.00 0.00 0.00 81 1023.3
20260903002015 71 342 3.0 5.0 0.00 0.00 0.00 80 1023.3
20260903001016 71 342 2.0 4.0 0.00 0.00 0.00 80 1023.3
20260903000021 71 342 3.0 4.0 0.00 0.00 0.00 80 1023.4
20260902235017 71 342 3.0 4.0 0.00 0.00 0.00 80 1023.3
20260902234015 71 342 3.0 5.0 0.00 0.00 0.00 80 1023.3
20260902232019 71 342 3.0 4.0 0.00 0.00 0.00 81 1023.4
20260902231015 71 342 3.0 4.0 0.00 0.00 0.00 83 1023.3
20260902230016 71 342 3.0 4.0 0.00 0.00 0.00 83 1023.3
20260902225015 71 342 2.0 4.0 0.00 0.00 0.00 84 1023.2
20260902224020 71 342 3.0 4.0 0.00 0.00 0.00 84 1023.3
20260902223017 71 342 3.0 4.0 0.00 0.00 0.00 84 1023.2
20260902220017 72 342 2.0 3.0 0.00 0.00 0.00 84 1023.4
20260902215015 72 342 2.0 3.0 0.00 0.00 0.00 84 1023.3
20260902214015 72 342 2.0 3.0 0.00 0.00 0.00 84 1023.2
20260902213017 73 342 2.0 3.0 0.00 0.00 0.00 84 1023.1
20260902212019 73 342 2.0 3.0 0.00 0.00 0.00 84 1023.0
20260902211016 73 342 3.0 4.0 0.00 0.00 0.00 84 1022.9
20260902210016 73 342 2.0 4.0 0.00 0.00 0.00 84 1022.9
20260902205015 73 342 2.0 4.0 0.00 0.00 0.00 83 1022.9
20260902204014 73 342 2.0 5.0 0.00 0.00 0.00 83 1022.8
20260902203015 73 342 2.0 3.0 0.00 0.00 0.00 83 1022.9
20260902201014 74 342 2.0 4.0 0.00 0.00 0.00 82 1022.8
20260902200016 74 342 1.0 3.0 0.00 0.00 0.00 82 1022.6
20260902195015 74 342 2.0 4.0 0.00 0.00 0.00 82 1022.6
20260902194016 75 342 2.0 3.0 0.00 0.00 0.00 81 1022.3
20260902193015 75 258 2.0 3.0 0.00 0.00 0.00 81 1022.3
20260902192017 76 218 0.0 2.0 0.00 0.00 0.00 81 1022.2
20260902191017 76 218 1.0 4.0 0.00 0.00 0.00 80 1022.1
20260902190016 76 218 2.0 4.0 0.00 0.00 0.00 80 1022.0
20260902183014 77 210 2.0 5.0 0.00 0.00 0.00 80 1021.7
20260902182016 77 213 3.0 7.0 0.00 0.00 0.00 79 1021.7
20260902181016 78 205 4.0 8.0 0.00 0.00 0.00 79 1021.8
20260902180016 78 206 3.0 6.0 0.00 0.00 0.00 79 1021.8
20260902174017 78 213 5.0 11.0 0.00 0.00 0.00 79 1021.9
20260902173015 79 221 4.0 9.0 0.00 0.00 0.00 78 1021.9
20260902172015 79 209 5.0 11.0 0.00 0.00 0.00 77 1021.9
20260902170018 80 193 4.0 12.0 0.00 0.00 0.00 76 1021.8
20260902165015 80 184 6.0 10.0 0.00 0.00 0.00 77 1021.8
20260902164015 81 184 4.0 10.0 0.00 0.00 0.00 77 1021.7
20260902163016 80 167 6.0 11.0 0.00 0.00 0.00 77 1021.8
20260902162017 81 166 6.0 12.0 0.00 0.00 0.00 75 1021.8
20260902161017 81 168 7.0 12.0 0.00 0.00 0.00 75 1021.8
20260902160018 81 169 6.0 11.0 0.00 0.00 0.00 75 1021.8
20260902155015 81 170 6.0 13.0 0.00 0.00 0.00 75 1021.9
20260902154015 82 166 7.0 16.0 0.00 0.00 0.00 74 1021.7
20260902153016 82 171 5.0 11.0 0.00 0.00 0.00 73 1021.8
20260902151017 82 178 6.0 14.0 0.00 0.00 0.00 74 1021.8
20260902144016 83 190 7.0 15.0 0.00 0.00 0.00 72 1021.8
20260902142014 84 164 5.0 12.0 0.00 0.00 0.00 69 1021.9
20260902141016 83 147 6.0 12.0 0.00 0.00 0.00 70 1022.0
20260902140020 84 158 8.0 14.0 0.00 0.00 0.00 69 1022.0
20260902135016 84 171 7.0 14.0 0.00 0.00 0.00 71 1022.1
20260902134017 84 169 6.0 12.0 0.00 0.00 0.00 70 1022.1
20260902133018 84 184 5.0 12.0 0.00 0.00 0.00 70 1022.1
20260902132018 83 159 5.0 12.0 0.00 0.00 0.00 71 1022.3
20260902131019 83 172 6.0 13.0 0.00 0.00 0.00 72 1022.4
20260902130016 83 160 6.0 14.0 0.00 0.00 0.00 72 1022.4
20260902125015 84 178 5.0 10.0 0.00 0.00 0.00 71 1022.4
20260902124015 83 170 7.0 15.0 0.00 0.00 0.00 72 1022.5
20260902123016 83 179 8.0 14.0 0.00 0.00 0.00 73 1022.5
20260902122014 83 182 6.0 13.0 0.00 0.00 0.00 72 1022.6
20260902121016 83 196 6.0 11.0 0.00 0.00 0.00 71 1022.7
20260902120019 82 191 6.0 12.0 0.00 0.00 0.00 73 1022.6
20260902115017 82 170 7.0 15.0 0.00 0.00 0.00 74 1022.7
20260902114015 82 177 8.0 14.0 0.00 0.00 0.00 74 1022.8
20260902113014 83 184 8.0 14.0 0.00 0.00 0.00 73 1022.8
20260902111015 83 185 9.0 15.0 0.00 0.00 0.00 74 1022.8
20260902110016 82 181 10.0 21.0 0.00 0.00 0.00 74 1022.8
20260902105016 83 184 8.0 16.0 0.00 0.00 0.00 72 1022.6
20260902104014 84 198 2.0 8.0 0.00 0.00 0.00 66 1022.6
20260902103016 84 157 2.0 8.0 0.00 0.00 0.00 66 1022.5
20260902102014 84 121 3.0 7.0 0.00 0.00 0.00 66 1022.5
20260902101014 83 144 4.0 7.0 0.00 0.00 0.00 66 1022.5
20260902095014 82 144 2.0 5.0 0.00 0.00 0.00 68 1022.7
20260902094019 82 162 4.0 10.0 0.00 0.00 0.00 68 1022.6
20260902093016 82 146 3.0 8.0 0.00 0.00 0.00 68 1022.6
20260902091014 81 178 3.0 5.0 0.00 0.00 0.00 69 1022.4
20260902090017 80 179 3.0 7.0 0.00 0.00 0.00 70 1022.3
20260902085015 80 187 2.0 6.0 0.00 0.00 0.00 71 1022.2